| time (UTC) | temp F | wind direction | speed MPH | gust MPH | rain 1hr in | rain 24hr in | rain mn in | humidity % | barometer mb |
| 20260906090003 | 67 | 342 | 0.0 | 0.0 | 0.00 | 0.02 | 0.00 | 98 | 998.3 |
| 20260906084503 | 67 | 342 | 0.0 | 0.0 | 0.00 | 0.02 | 0.00 | 98 | 998.4 |
| 20260906083006 | 67 | 342 | 0.0 | 0.0 | 0.00 | 0.02 | 0.00 | 98 | 998.4 |
| 20260906081502 | 67 | 342 | 0.0 | 4.0 | 0.00 | 0.02 | 0.00 | 98 | 998.4 |
| 20260906080001 | 68 | 140 | 0.0 | 2.0 | 0.00 | 0.02 | 0.00 | 98 | 998.4 |
| 20260906074501 | 68 | 140 | 0.0 | 0.0 | 0.00 | 0.02 | 0.00 | 98 | 998.1 |
| 20260906073100 | 68 | 140 | 0.0 | 0.0 | 0.00 | 0.02 | 0.00 | 98 | 998.0 |
| 20260906071602 | 68 | 140 | 0.0 | 0.0 | 0.00 | 0.02 | 0.00 | 98 | 998.3 |
| 20260906070057 | 68 | 140 | 0.0 | 0.0 | 0.00 | 0.02 | 0.00 | 98 | 998.4 |
| 20260906064557 | 68 | 140 | 0.0 | 1.0 | 0.00 | 0.02 | 0.00 | 98 | 998.3 |
| 20260906063058 | 68 | 140 | 0.0 | 1.0 | 0.00 | 0.02 | 0.00 | 98 | 998.2 |
| 20260906061558 | 68 | 140 | 0.0 | 0.0 | 0.00 | 0.02 | 0.00 | 98 | 998.3 |
| 20260906060054 | 68 | 140 | 0.0 | 0.0 | 0.00 | 0.02 | 0.00 | 98 | 998.5 |
| 20260906054551 | 68 | 140 | 0.0 | 0.0 | 0.00 | 0.02 | 0.00 | 98 | 998.8 |
| 20260906053053 | 68 | 140 | 0.0 | 0.0 | 0.00 | 0.02 | 0.00 | 98 | 999.3 |
| 20260906051553 | 68 | 140 | 0.0 | 1.0 | 0.00 | 0.02 | 0.00 | 98 | 999.4 |
| 20260906050047 | 68 | 140 | 0.0 | 0.0 | 0.00 | 0.02 | 0.00 | 98 | 999.4 |
| 20260906044546 | 68 | 140 | 0.0 | 0.0 | 0.00 | 0.02 | 0.00 | 98 | 999.3 |
| 20260906043045 | 67 | 140 | 0.0 | 2.0 | 0.00 | 0.02 | 0.00 | 98 | 999.3 |
| 20260906041544 | 67 | 140 | 0.0 | 0.0 | 0.00 | 0.02 | 0.00 | 97 | 999.2 |
| 20260906040042 | 68 | 140 | 0.0 | 0.0 | 0.00 | 0.02 | 0.00 | 98 | 999.2 |
| 20260906034546 | 68 | 140 | 0.0 | 0.0 | 0.00 | 0.02 | 0.02 | 97 | 999.5 |
| 20260906033041 | 68 | 140 | 0.0 | 0.0 | 0.00 | 0.02 | 0.02 | 97 | 999.6 |
| 20260906031539 | 68 | 140 | 0.0 | 0.0 | 0.00 | 0.02 | 0.02 | 97 | 999.3 |
| 20260906030041 | 68 | 140 | 0.0 | 0.0 | 0.00 | 0.02 | 0.02 | 97 | 999.5 |
| 20260906024546 | 68 | 140 | 0.0 | 2.0 | 0.00 | 0.02 | 0.02 | 97 | 999.6 |
| 20260906023038 | 68 | 140 | 0.0 | 0.0 | 0.00 | 0.02 | 0.02 | 97 | 999.2 |
| 20260906021537 | 68 | 140 | 0.0 | 0.0 | 0.00 | 0.02 | 0.02 | 97 | 999.2 |
| 20260906020045 | 68 | 140 | 0.0 | 0.0 | 0.00 | 0.02 | 0.02 | 97 | 999.0 |
| 20260906014549 | 69 | 140 | 0.0 | 0.0 | 0.00 | 0.02 | 0.02 | 97 | 998.6 |
| 20260906013036 | 69 | 140 | 0.0 | 0.0 | 0.00 | 0.02 | 0.02 | 96 | 998.9 |
| 20260906011540 | 69 | 140 | 0.0 | 0.0 | 0.00 | 0.02 | 0.02 | 96 | 998.8 |
| 20260906010034 | 69 | 140 | 0.0 | 0.0 | 0.00 | 0.02 | 0.02 | 96 | 998.5 |
| 20260906004540 | 70 | 140 | 0.0 | 0.0 | 0.00 | 0.02 | 0.02 | 95 | 998.3 |
| 20260906003046 | 70 | 140 | 0.0 | 0.0 | 0.00 | 0.02 | 0.02 | 94 | 998.1 |
| 20260906001535 | 71 | 140 | 0.0 | 0.0 | 0.00 | 0.02 | 0.02 | 94 | 998.2 |
| 20260906000033 | 72 | 140 | 0.0 | 0.0 | 0.00 | 0.02 | 0.02 | 93 | 998.2 |
| 20260905234532 | 73 | 140 | 0.0 | 0.0 | 0.00 | 0.02 | 0.02 | 93 | 998.0 |
| 20260905233032 | 73 | 140 | 0.0 | 0.0 | 0.00 | 0.02 | 0.02 | 92 | 998.0 |
| 20260905231536 | 74 | 140 | 0.0 | 0.0 | 0.00 | 0.02 | 0.02 | 91 | 998.0 |
| 20260905230031 | 74 | 140 | 0.0 | 0.0 | 0.00 | 0.02 | 0.02 | 91 | 997.8 |
| 20260905224533 | 74 | 140 | 0.0 | 0.0 | 0.00 | 0.02 | 0.02 | 92 | 997.7 |
| 20260905223029 | 74 | 140 | 0.0 | 0.0 | 0.00 | 0.02 | 0.02 | 91 | 997.6 |
| 20260905221528 | 74 | 140 | 0.0 | 0.0 | 0.00 | 0.02 | 0.02 | 92 | 997.9 |
| 20260905220027 | 74 | 140 | 0.0 | 0.0 | 0.00 | 0.02 | 0.02 | 92 | 997.9 |
| 20260905214530 | 73 | 140 | 0.0 | 0.0 | 0.00 | 0.02 | 0.02 | 94 | 998.0 |
| 20260905213037 | 73 | 140 | 1.0 | 3.0 | 0.00 | 0.02 | 0.02 | 93 | 998.2 |
| 20260905211528 | 73 | 140 | 0.0 | 0.0 | 0.01 | 0.02 | 0.02 | 94 | 998.3 |
| 20260905210026 | 73 | 139 | 0.0 | 2.0 | 0.01 | 0.02 | 0.02 | 92 | 998.3 |
| 20260905204528 | 73 | 139 | 0.0 | 2.0 | 0.01 | 0.02 | 0.02 | 90 | 998.5 |
| 20260905203025 | 75 | 139 | 0.0 | 2.0 | 0.01 | 0.02 | 0.02 | 88 | 998.3 |
| 20260905201524 | 76 | 139 | 0.0 | 2.0 | 0.00 | 0.01 | 0.01 | 81 | 998.9 |
| 20260905200024 | 76 | 48 | 1.0 | 6.0 | 0.00 | 0.01 | 0.01 | 80 | 998.6 |
| 20260905194523 | 76 | 217 | 2.0 | 5.0 | 0.00 | 0.04 | 0.01 | 80 | 998.3 |
| 20260905193023 | 77 | 138 | 0.0 | 3.0 | 0.00 | 0.04 | 0.01 | 78 | 998.9 |
| 20260905191522 | 79 | 360 | 0.0 | 4.0 | 0.00 | 0.04 | 0.01 | 76 | 998.3 |
| 20260905190024 | 81 | 64 | 4.0 | 11.0 | 0.00 | 0.04 | 0.01 | 66 | 998.4 |
| 20260905184521 | 85 | 16 | 2.0 | 11.0 | 0.00 | 0.04 | 0.01 | 62 | 998.1 |
| 20260905183021 | 89 | 67 | 2.0 | 8.0 | 0.00 | 0.04 | 0.01 | 61 | 997.9 |
| 20260905181523 | 89 | 69 | 0.0 | 2.0 | 0.00 | 0.04 | 0.01 | 59 | 997.8 |
| 20260905180014 | 88 | 114 | 1.0 | 6.0 | 0.00 | 0.04 | 0.01 | 64 | 998.3 |
| 20260905174512 | 87 | 225 | 2.0 | 4.0 | 0.00 | 0.04 | 0.01 | 63 | 998.8 |
| 20260905173008 | 88 | 172 | 0.0 | 2.0 | 0.00 | 0.04 | 0.01 | 62 | 999.0 |
| 20260905171513 | 87 | 22 | 2.0 | 5.0 | 0.00 | 0.04 | 0.01 | 61 | 999.1 |
| 20260905170003 | 86 | 327 | 0.0 | 4.0 | 0.00 | 0.04 | 0.01 | 63 | 999.1 |
| 20260905164559 | 85 | 182 | 0.0 | 6.0 | 0.00 | 0.04 | 0.01 | 67 | 999.4 |
| 20260905163054 | 84 | 321 | 1.0 | 5.0 | 0.00 | 0.04 | 0.01 | 72 | 999.9 |
| 20260905161550 | 83 | 295 | 0.0 | 3.0 | 0.00 | 0.04 | 0.01 | 74 | 999.9 |
| 20260905160049 | 81 | 304 | 1.0 | 4.0 | 0.00 | 0.04 | 0.01 | 82 | 999.9 |
| 20260905154542 | 80 | 211 | 0.0 | 3.0 | 0.00 | 0.04 | 0.01 | 84 | 1000.1 |
| 20260905153039 | 78 | 238 | 0.0 | 4.0 | 0.00 | 0.04 | 0.01 | 86 | 1000.3 |
| 20260905151533 | 76 | 16 | 0.0 | 3.0 | 0.00 | 0.04 | 0.01 | 90 | 1000.5 |
| 20260905150028 | 74 | 302 | 0.0 | 4.0 | 0.00 | 0.04 | 0.01 | 95 | 1000.8 |
| 20260905144625 | 73 | 327 | 0.0 | 4.0 | 0.00 | 0.04 | 0.01 | 98 | 1000.8 |
| 20260905143025 | 71 | 59 | 1.0 | 5.0 | 0.00 | 0.04 | 0.01 | 99 | 1000.8 |
| 20260905141519 | 70 | 62 | 0.0 | 4.0 | 0.00 | 0.04 | 0.01 | 99 | 1000.9 |
| 20260905140015 | 70 | 343 | 0.0 | 3.0 | 0.00 | 0.04 | 0.01 | 99 | 1001.2 |
| 20260905134514 | 69 | 71 | 0.0 | 2.0 | 0.00 | 0.04 | 0.01 | 99 | 1001.4 |
| 20260905133011 | 69 | 71 | 1.0 | 3.0 | 0.00 | 0.04 | 0.01 | 99 | 1001.4 |
| 20260905131519 | 69 | 28 | 0.0 | 2.0 | 0.00 | 0.04 | 0.01 | 99 | 1001.5 |
| 20260905130008 | 69 | 341 | 0.0 | 0.0 | 0.00 | 0.04 | 0.01 | 99 | 1001.4 |
| 20260905124508 | 68 | 341 | 0.0 | 1.0 | 0.00 | 0.04 | 0.01 | 99 | 1001.3 |
| 20260905123005 | 68 | 341 | 0.0 | 3.0 | 0.00 | 0.04 | 0.01 | 99 | 1001.3 |
| 20260905121503 | 68 | 338 | 0.0 | 1.0 | 0.00 | 0.04 | 0.01 | 99 | 1001.3 |
| 20260905120000 | 68 | 338 | 0.0 | 2.0 | 0.01 | 0.04 | 0.01 | 99 | 1001.2 |
| 20260905114600 | 68 | 339 | 0.0 | 0.0 | 0.01 | 0.05 | 0.01 | 99 | 1000.8 |
| 20260905113057 | 68 | 339 | 0.0 | 1.0 | 0.01 | 0.05 | 0.01 | 99 | 1000.7 |
| 20260905111642 | 68 | 339 | 0.0 | 0.0 | 0.01 | 0.05 | 0.01 | 99 | 1000.5 |
| 20260905110056 | 68 | 339 | 0.0 | 0.0 | 0.00 | 0.04 | 0.00 | 99 | 1000.3 |
| 20260905104555 | 68 | 339 | 0.0 | 0.0 | 0.00 | 0.04 | 0.00 | 99 | 1000.1 |
| 20260905103055 | 69 | 339 | 0.0 | 0.0 | 0.00 | 0.04 | 0.00 | 99 | 1000.0 |
| 20260905101554 | 68 | 339 | 0.0 | 0.0 | 0.00 | 0.04 | 0.00 | 98 | 1000.0 |
| 20260905100107 | 68 | 339 | 0.0 | 0.0 | 0.00 | 0.04 | 0.00 | 98 | 999.9 |
| 20260905094553 | 69 | 339 | 0.0 | 0.0 | 0.00 | 0.04 | 0.00 | 98 | 999.8 |
| 20260905093058 | 69 | 339 | 0.0 | 0.0 | 0.00 | 0.04 | 0.00 | 98 | 999.9 |
| 20260905091600 | 69 | 339 | 0.0 | 0.0 | 0.00 | 0.04 | 0.00 | 98 | 999.9 |